Location: Unspecified
(50.1500°N, 0.0000°E)
Time: 05:59:00
(UTC+00:00)

Kyokko - Visible Passes

Search period start: 05 April 2026 00:00
Search period end: 15 April 2026 00:00
Orbit: 644 x 3935 km, 65.4° (Epoch: 29 March)

Date Brightness Start Highest point End Pass type
(mag) Time Alt. Az. Time Alt. Az. Time Alt. Az.
5 Apr 9.8 02:18:06 10° WNW 02:24:13 21° W 02:24:13 21° W visible
5 Apr 9.1 19:57:19 10° NW 20:03:02 29° NNE 20:12:06 10° ENE visible
5 Apr 8.5 22:14:54 10° NW 22:22:54 64° NE 22:29:05 35° ESE visible
6 Apr 8.9 00:32:27 10° NW 00:41:35 50° WSW 00:42:58 49° SW visible
6 Apr 10.1 02:54:45 10° W 02:56:51 12° W 02:56:51 12° W visible
6 Apr 9.0 20:30:56 10° NW 20:37:28 35° NNE 20:47:53 11° E visible
6 Apr 8.4 22:48:18 10° NW 22:56:50 84° NE 23:01:46 48° SE visible
7 Apr 9.3 01:06:20 10° NW 01:15:19 35° WSW 01:15:39 35° WSW visible
7 Apr 8.8 21:04:26 10° NW 21:11:44 46° NE 21:20:35 20° E visible
7 Apr 8.5 23:21:46 10° NW 23:30:43 73° SW 23:34:28 54° S visible
8 Apr 9.7 01:40:47 10° WNW 01:48:21 23° WSW 01:48:21 23° WSW visible
8 Apr 9.1 19:20:10 10° NW 19:25:50 28° NNE 19:34:46 10° ENE visible
8 Apr 8.6 21:37:50 10° NW 21:45:49 61° NE 21:53:19 30° ESE visible
8 Apr 8.9 23:55:20 10° NW 00:04:33 53° WSW 00:07:13 48° SSW visible
9 Apr 10.1 02:16:45 10° WNW 02:21:06 14° W 02:21:06 14° W visible
9 Apr 9.0 19:53:50 10° NW 20:00:18 34° NNE 20:11:08 10° E visible
9 Apr 8.4 22:11:14 10° NW 22:19:47 81° NE 22:26:06 40° SE visible
10 Apr 9.3 00:29:10 10° NW 00:38:18 38° WSW 00:40:00 37° SW visible
10 Apr 8.8 20:27:21 10° NW 20:34:36 44° NE 20:45:01 15° E visible
10 Apr 8.5 22:44:40 10° NW 22:53:40 77° SW 22:58:55 47° SSE visible
11 Apr 9.8 01:03:29 10° WNW 01:11:52 25° WSW 01:12:49 25° WSW visible
11 Apr 8.6 21:00:46 10° NW 21:08:43 58° NE 21:17:52 24° ESE visible
11 Apr 8.9 23:18:14 10° NW 23:27:31 57° WSW 23:31:46 45° SSW visible
12 Apr 10.2 01:39:00 10° WNW 01:45:08 15° W 01:45:40 15° WSW visible
12 Apr 9.0 19:16:43 10° NW 19:23:07 33° NNE 19:33:46 10° E visible
12 Apr 8.5 21:34:09 10° NW 21:42:42 78° NE 21:50:46 32° SE visible
12 Apr 9.3 23:52:00 10° NW 00:01:17 40° WSW 00:04:40 36° SW visible
13 Apr 8.8 19:50:15 10° NW 19:57:27 43° NE 20:09:48 11° ESE visible
13 Apr 8.6 22:07:36 10° NW 22:16:36 81° SW 22:23:42 38° SSE visible
14 Apr 9.8 00:26:13 10° WNW 00:34:53 27° WSW 00:37:36 26° WSW visible
14 Apr 8.7 20:23:41 10° NW 20:31:36 56° NE 20:42:45 18° ESE visible
14 Apr 8.9 22:41:08 10° NW 22:50:28 60° WSW 22:56:40 39° S visible
